Location: Newark
(44.6028°N, 124.0883°W)
Time: 00:21:47
(UTC+00:00)

N. Korean satellite - Pass Details

Date: 23 October 2020
Orbit: 452 x 504 km, 97.2° (Epoch: 24 November)

Event Time Altitude Azimuth Distance (km) Brightness Sun altitude
Rises 13:26:08 0° 19° (NNE) 2,489 10.4 -14.3°
Reaches altitude 10° 13:28:17 10° 28° (NNE) 1,604 9.5 -13.9°
Maximum altitude 13:31:31 38° 98° (E) 706 8.0 -13.3°
Drops below altitude 10° 13:34:43 10° 168° (SSE) 1,583 9.4 -12.8°
Sets 13:36:49 0° 177° (S) 2,450 10.2 -12.4°
